Home > Weather > Santiago de Cuba > Past weeks

Flag for Cuba Weather for the Past 2 Weeks in Santiago de Cuba, Cuba

Now
72 °F

Overcast.


Feels Like: 67 °F
Forecast: 71 / 81 °F
Wind: 9 mph from North

Location: Santiago De Cuba - Oriente

Current Time: Feb 13, 2016 at 12:37:27 AM

Latest Report: Feb 12, 2016 at 11:50 PM


Visibility: 5 mi

Pressure: 30.07 "Hg

Humidity: 94%

Dew point: 70 °F

Location of Santiago de CubaLocation

Historic Weather in Santiago de Cuba — Graph

°F

Santiago de Cuba Temperature Yesterday

Maximum temperature yesterday: 82 °F (at 10:50 AM)
Minimum temperature yesterday: 72 °F (at 12:50 AM)
Average temperature yesterday: 75 °F

High & Low Weather Summary for the Past Weeks

 TemperatureHumidityPressure
High84 °F (Jan 30, 12:51 PM)100% (Feb 8, 11:51 PM)30.15 "Hg (Feb 8, 11:51 PM)
Low66 °F (Feb 5, 6:51 AM)40% (Feb 5, 1:50 PM)29.95 "Hg (Jan 29, 2:51 AM)
Average75 °F74%30.04 "Hg
* Reported Jan 28 10:50 PM — Feb 12 10:51 PM, Santiago de Cuba, Weather by CustomWeather, © 2016

Note: Actual official high and low records may vary slightly from our data, if they occured in-between our weather recording intervals... More about our weather records

Advertising

Santiago de Cuba Weather History for the Previous 24 Hours

 ConditionsComfort  
Time TempWeatherWind HumidityBarometerVisibility
10:51 PM
Fri, Feb 12
72 °FOvercast.7 mph94%30.07 "Hg5 mi
9:54 PM72 °FMostly cloudy.14 mph94%30.07 "Hg4 mi
8:51 PM72 °FLight rain. Mostly cloudy.8 mph94%30.07 "Hg4 mi
7:51 PM72 °FRain. Mostly cloudy.9 mph94%30.09 "Hg4 mi
6:52 PM72 °FLight rain. Mostly cloudy.8 mph88%N/A4 mi
5:50 PM75 °FLight rain. More clouds than sun.10 mph74%30.04 "Hg4 mi
3:51 PM73 °FScattered showers. Broken clouds.7 mph89%N/A5 mi
2:50 PM73 °FLight rain. Broken clouds.6 mph89%30.04 "Hg3 mi
1:50 PM81 °FScattered clouds.7 mph62%30.04 "Hg6 mi
12:53 PM82 °FScattered clouds.7 mph55%30.07 "Hg6 mi
11:51 AM82 °FScattered clouds.8 mph55%30.09 "Hg6 mi
10:50 AM82 °FScattered clouds.10 mph55%30.12 "Hg6 mi
9:51 AM79 °FScattered clouds.10 mph61%30.15 "Hg6 mi
8:51 AM75 °FPartly sunny.13 mph69%30.12 "Hg6 mi
7:50 AM75 °FScattered clouds.10 mph69%30.12 "Hg6 mi
6:50 AM72 °FScattered clouds.10 mph78%30.09 "Hg6 mi
5:50 AM72 °FPassing clouds.10 mph78%30.09 "Hg5 mi
4:51 AM72 °FPassing clouds.12 mph78%30.09 "Hg5 mi
3:50 AM73 °FPassing clouds.14 mph74%30.07 "Hg5 mi
2:51 AM73 °FPassing clouds.14 mph74%30.07 "Hg5 mi
1:50 AM72 °FPassing clouds.12 mph78%30.09 "Hg5 mi
12:50 AM72 °FPassing clouds.12 mph78%30.09 "Hg5 mi
Weather by CustomWeather, © 2016

See weather overviewHow to use our weather pages